CZ-4B R/B

Satellite information

Favourite Embed

Satellite Type and Status

ROCKET BODYIN ORBIT

Key statistics

Satellite CZ-4B R/B at a glance.

Uptime

3978

Days in orbit

Revolutions

≈ 15.0

Per day

Orbit

SSO

Sun Synchronous Orbit

Inclination

98.5

Latest

Satellite identification and parameters

Extended collection of information and parameters for CZ-4B R/B.

Object identification

Identified? True

Debris? False

Object name: CZ-4B R/B

International designator: 2014-079B

Object number (NORAD): 40337

Object ID (CCSDS): 40337

Country: PEOPLES REPUBLIC OF CHINA (PRC)

Current information (Y/N): Y

RCS size: LARGE

Orbital parameters

Period: 95.767 minutes

Inclination: 98.4836 deg

SMA: 6933.791 km

Apoapsis: 657.436 km

Periapsis: 453.876 km

RAAN: 8.9213 deg

Eccentricy: 0.01467881

Argument of periapsis: 30.2607 deg

Mean anomaly: 330.6991 deg

Mean motion: 15.03649556 rev/day

Mean motion (dot): 0.00004345 rev/day2

B* drag term: 0.00025524425 1/REarth

Two-line elements (TLE)

Creation date: Oct. 28, 2025, 2:18 a.m.

Reference frame: TEME

Reference center: EARTH

Epoch: Oct. 27, 2025, 10:04 p.m. UTC

TLE line 0: 0 CZ-4B R/B

TLE line 1: 1 40337U 14079B 25300.91976454 .00004345 00000-0 25524-3 0 9990

TLE line 2: 2 40337 98.4836 8.9213 0146788 30.2607 330.6991 15.03649556592799

Live tracking on map

Real-time ground track for satellite CZ-4B R/B.

In-orbit conjunctions

A list of the most updated potential collisions computed for object CZ-4B R/B.

Target Orbit TCA Probability of collision Miss distance Type
SCOUT B DEB HEO 2025-09-09 07:34:58 0.0001034241 299.0 (m) DEBRIS
COSMOS 2251 DEB LEO 2024-11-17 11:30:30 0.000211496 434.0 (m) DEBRIS

Associated space launch

CZ-4B R/B was lifted into orbit during the mission ‘Long March 4B | CBERS-4’, on board a Long March 4B space rocket.

The launch took place on Dec. 7, 2014, 3:26 a.m. from Launch Complex 9.

For more information about the launch, click the button.

Launch to space Long March 4B | CBERS-4
Long March 4B | CBERS-4

Agency: N/A

Status: Launch Successful

Launch date: Dec. 7, 2014, 3:26 a.m. UTC

Rocket: Long March 4B

Launch pad: Launch Complex 9

Location: Taiyuan Satellite Launch Center, People's Republic of China

...

Latest news about this satellite

There are no fresh news available about this satellite. Check back as we update our databases every day.


Newsletter sign-up

Weekly statistics, charts and insights to help you stay on top of the space industry.